Regional Weather Roundup
Issued by NWS Upton, NY

Current Version | Previous Version | Text Only | Print | Product List | Glossary Off
Versions: 1 2 3 4 5 6 7 8 9 10 11 12 13 14 15 16 17 18 19 20 21 22 23 24 25 26 27 28 29 30 31 32 33 34 35 36 37 38 39 40 41 42 43 44 45 46 47 48 49 50
000 ASUS41 KOKX 231108 RWROKX REGIONAL WEATHER ROUNDUP NATIONAL WEATHER SERVICE NEW YORK NY 600 AM EST THU FEB 23 2017 NOTE: "FAIR" INDICATES FEW OR NO CLOUDS BELOW 12,000 FEET WITH NO SIGNIFICANT WEATHER AND/OR OBSTRUCTIONS TO VISIBILITY. NYZ071-072-176-178-NJZ106-104-231200- NEW YORK CITY METRO AREA CITY SKY/WX TMP DP RH WIND PRES REMARKS Central Park CLEAR 45 40 82 NE3 29.91R Wall St Helipt NOT AVBL LaGuardia APRT PTCLDY 42 38 85 NE6 29.89R Kennedy INTL PTCLDY 40 38 93 CALM 29.90S Breezy Point N/A 41 N/A N/A S5 N/A Newark/Liberty PTCLDY 44 41 89 S5 29.89R Teterboro CLEAR 41 37 86 CALM 29.88R $$ NYZ177-179-078>081-231200- LONG ISLAND NEW YORK CITY SKY/WX TMP DP RH WIND PRES REMARKS Jones Beach N/A 43 N/A N/A S8 N/A Matinecock PT N/A 37 N/A N/A SE1 N/A Farmingdale FOG 36 36 100 CALM 29.90R VSB 1/2 MacArthur/ISP FOG 37 37 100 CALM 29.89S VSB 3/4 Shirley CLOUDY 35 34 96 SE3 29.90S FOG Westhampton FOG 32 31 96 CALM 29.92R VSB 1/2 Southampton NOT AVBL Bridgehampton NOT AVBL East Hampton FOG 33 33 99 CALM 29.90S VSB 1/2 Montauk N/A 40 39 97 VRB3 29.90F $$ NYZ052-065-067-231200- HUDSON VALLEY CITY SKY/WX TMP DP RH WIND PRES REMARKS White Plains CLEAR 35 34 96 CALM 29.87R Newburgh PTCLDY 37 37 100 CALM 29.85F Montgomery CLEAR 32 30 92 CALM 29.84S Poughkeepsie CLEAR 33 32 96 CALM 29.85S Albany MOCLDY 43 36 76 S3 29.83S $$ NJZ001-105-106-008-010-013-015-019>022-104-231200- NEW JERSEY CITY SKY/WX TMP DP RH WIND PRES REMARKS Newark/Liberty PTCLDY 44 41 89 S5 29.89R Teterboro CLEAR 41 37 86 CALM 29.88R Caldwell CLEAR 36 33 89 CALM 29.89R Somerville CLEAR 32 29 88 CALM 29.87R Linden NOT AVBL Sussex CLEAR 31 30 96 SW5 29.85S WCI 26 Andover N/A 31 30 96 CALM 29.86R Trenton FOG 45 45 100 SW3 29.88S VSB 1/4 Millville FOG 44 44 100 CALM 29.90R VSB 1/4 Atlantic City FOG 46 44 93 E3 29.90S VSB 3/4 Wrightstown FOG 47 46 98 CALM 29.87S VSB 1/2 Toms River LGT RAIN 45 45 100 SW3 29.91S VSB 1/2 Belmar LGT RAIN 45 45 100 SW5 29.90S VSB 1/4 $$ PAZ047>061-062-071-231200- EASTERN PENNSYLVANIA CITY SKY/WX TMP DP RH WIND PRES REMARKS Philadelphia FOG 49 48 97 CALM 29.89F VSB 1/2 Allentown CLEAR 35 32 88 W3 29.88R FOG Scranton CLEAR 39 37 92 NE3 29.84R FOG $$ CTZ002-004>006-009-010-012-RIZ004-006-007-MAZ004-011-015-231200- SOUTHERN NEW ENGLAND IN CT CITY SKY/WX TMP DP RH WIND PRES REMARKS Bradley INTL PTCLDY 36 34 92 CALM 29.87S Hartford CLEAR 35 33 92 CALM 29.88S Danbury CLEAR 30 29 96 CALM 29.88F Wtrbury/Oxford CLEAR 41 37 87 CALM 29.88S FOG Bridgeport FOG 38 36 92 CALM 29.89S VSB 1/4 Meriden CLEAR 35 32 88 CALM 29.88F FOG New Haven FOG 37 37 100 CALM 29.89S VSB 1/4 Chester FOG 39 37 93 CALM 29.88S VSB 1/4 Groton FOG 37 36 96 CALM 29.89S VSB 1/4 Wilimantic CLEAR 34 31 88 CALM 29.89S IN RI CITY SKY/WX TMP DP RH WIND PRES REMARKS Providence PTCLDY 36 35 96 S3 29.88S Block Island NOT AVBL Westerly FOG 35 32 88 CALM 29.90S VSB 1/4 IN MA CITY SKY/WX TMP DP RH WIND PRES REMARKS Boston PTCLDY 41 37 86 S9 29.87S Worcester CLOUDY 43 35 73 W10 29.84S Westfield CLEAR 33 31 92 CALM 29.86S Provincetown FOG 39 38 96 S9 29.89S VSB 3/4 WCI 33 Nantucket FOG 43 42 97 SW6 29.91S VSB 1/4 $$ ANZ330-335-338-340-345-350-353-355-231200- COASTAL MARINE OBSERVATIONS STATION/POSITION TIME SKY/WX TEMP WIND PRES VSBY WAVE AIR SEA DIR/SP/G HT/PER (UTC) (F) (DEG/KT/KT) (MB) (MI) (FT/S) NY HARB ENTRANCE 0950 44 42 190/ 8/ 10 1011.8 2/10 20 S FIRE ISLAND 1050 45 43 200/ 10/ 10 1012.6 3/10 GREAT SOUTH BAY NOT AVBL 23 SSW MONTAUK P 0950 45 46 1012.9 3/10 15 E BARNEGAT LI 1030 42 N/A 3/11 HUDSON CANYON 0950 49 1013.3 3/11 KINGS POINT 1048 38 38 1012.0 EXECUTION ROCKS NOT AVBL CENTRAL LI SOUND NOT AVBL EASTERN LI SOUND NOT AVBL ROBBINS REEF 1048 45 190/ 6/ 7 1012.2 $$ >>>>>>>>>>>>>>>>>>>>>>>>>>>> KEY <<<<<<<<<<<<<<<<<<<<<<<<<<< > < > SKY/WX - Sky Condition/Present Weather < > TMP - Temperature in Fahrenheit < > DP - Dew Point in Fahrenheit < > RH - Relative Humidity in Percent < > WIND - Direction (from) and Speed in MPH < > PRES - Mean Sea Level Pressure (inches of Hg) < > WCI - Wind Chill Index < > VSB - VISIBILITY IN MILES < > HX - HEAT INDEX < > TC - TEMPERATURE IN CELSIUS < > VRB - VARIABLE WIND DIRECTION < > < >>>>>>>>>>>>>>>>>>>>>>>>>>>> KEY <<<<<<<<<<<<<<<<<<<<<<<<<<<

USA.gov is the U.S. government's official web portal to all federal, state and local government web resources and services.